CW3642 Weather Reports


Display with metric or nautical units.
time (UTC)temp
F
wind
direction
speed
MPH
gust
MPH
rain 1hr
in
rain 24hr
in
rain mn
in
humidity
%
barometer
mb
20260510130334 45 360 0.0 0.0 0.00 0.00 0.00 71 1015.4
20260510125834 44 360 0.0 0.0 0.00 0.00 0.00 72 1015.3
20260510124334 43 360 0.0 0.0 0.00 0.00 0.00 75 1015.2
20260510123334 42 360 0.0 0.0 0.00 0.00 0.00 78 1015.0
20260510122334 41 360 0.0 0.0 0.00 0.00 0.00 80 1015.0
20260510121834 41 360 0.0 0.0 0.00 0.00 0.00 84 1015.0
20260510120835 40 360 0.0 0.0 0.00 0.00 0.00 89 1014.7
20260510120335 39 360 0.0 0.0 0.00 0.00 0.00 91 1014.7
20260510115834 38 360 0.0 0.0 0.00 0.00 0.00 93 1014.6
20260510115334 37 360 0.0 0.0 0.00 0.00 0.00 94 1014.6
20260510114834 36 360 0.0 0.0 0.00 0.00 0.00 94 1014.5
20260510113835 34 360 0.0 0.0 0.00 0.00 0.00 94 1014.4
20260510113334 34 360 0.0 0.0 0.00 0.00 0.00 94 1014.3
20260510112335 33 360 0.0 0.0 0.00 0.00 0.00 94 1014.2
20260510111834 32 360 0.0 0.0 0.00 0.00 0.00 94 1013.9
20260510111334 32 360 0.0 0.0 0.00 0.00 0.00 94 1014.0
20260510105835 31 360 0.0 0.0 0.00 0.00 0.00 93 1013.8
20260510105334 31 360 0.0 0.0 0.00 0.00 0.00 93 1013.8
20260510104335 31 360 0.0 0.0 0.00 0.00 0.00 92 1013.5
20260510103834 31 360 0.0 0.0 0.00 0.00 0.00 93 1013.4
20260510102834 32 360 0.0 0.0 0.00 0.00 0.00 92 1013.4
20260510102335 32 360 0.0 0.0 0.00 0.00 0.00 92 1013.3
20260510101834 32 360 0.0 0.0 0.00 0.00 0.00 92 1013.2
20260510101334 32 360 0.0 0.0 0.00 0.00 0.00 92 1013.2
20260510100834 32 360 0.0 0.0 0.00 0.00 0.00 92 1013.0
20260510095827 32 360 0.0 0.0 0.00 0.00 0.00 92 1012.9
20260510095327 32 360 0.0 0.0 0.00 0.00 0.00 92 1013.0
20260510094827 32 360 0.0 0.0 0.00 0.00 0.00 92 1012.9
20260510094327 32 360 0.0 0.0 0.00 0.00 0.00 92 1012.9
20260510093827 33 360 0.0 0.0 0.00 0.00 0.00 92 1012.8
20260510093327 33 360 0.0 0.0 0.00 0.00 0.00 92 1012.7
20260510092327 33 360 0.0 0.0 0.00 0.00 0.00 92 1012.6
20260510091827 33 360 0.0 0.0 0.00 0.00 0.00 92 1012.5
20260510091327 33 360 0.0 0.0 0.00 0.00 0.00 91 1012.5
20260510090827 33 360 0.0 0.0 0.00 0.00 0.00 91 1012.4
20260510090327 33 360 0.0 0.0 0.00 0.00 0.00 91 1012.3
20260510085827 33 360 0.0 0.0 0.00 0.00 0.00 91 1012.3
20260510084827 34 360 0.0 0.0 0.00 0.00 0.00 90 1012.3
20260510084327 34 360 0.0 0.0 0.00 0.00 0.00 90 1012.2
20260510083827 34 360 0.0 0.0 0.00 0.00 0.00 90 1012.1
20260510083327 34 360 0.0 0.0 0.00 0.00 0.00 90 1012.1
20260510082827 35 360 0.0 0.0 0.00 0.00 0.00 90 1012.0
20260510082327 35 360 0.0 0.0 0.00 0.00 0.00 90 1011.8
20260510081827 35 360 0.0 0.0 0.00 0.00 0.00 90 1011.9
20260510080827 35 360 0.0 0.0 0.00 0.00 0.00 90 1011.8
20260510080327 35 360 0.0 0.0 0.00 0.00 0.00 90 1011.8
20260510075827 35 360 0.0 0.0 0.00 0.00 0.00 90 1011.8
20260510075327 35 360 0.0 0.0 0.00 0.00 0.00 90 1011.7
20260510074827 35 360 0.0 0.0 0.00 0.00 0.00 90 1011.7
20260510074327 35 360 0.0 0.0 0.00 0.00 0.00 90 1011.6
20260510073827 35 360 0.0 0.0 0.00 0.00 0.00 91 1011.6
20260510073327 35 360 0.0 0.0 0.00 0.00 0.00 91 1011.6
20260510072827 34 360 0.0 0.0 0.00 0.00 0.00 92 1011.5
20260510072327 34 360 0.0 0.0 0.00 0.00 0.00 92 1011.4
20260510071827 33 360 0.0 0.0 0.00 0.00 0.00 92 1011.3
20260510070327 32 360 0.0 0.0 0.00 0.00 0.00 92 1011.0
20260510065827 32 360 0.0 0.0 0.00 0.00 0.00 91 1010.9
20260510065327 32 360 0.0 0.0 0.00 0.00 0.00 91 1011.1
20260510064327 32 360 0.0 0.0 0.00 0.00 0.00 90 1011.0
20260510063827 32 360 0.0 0.0 0.00 0.00 0.00 89 1011.0
20260510063327 32 360 0.0 0.0 0.00 0.00 0.00 89 1011.0
20260510062827 32 360 0.0 0.0 0.00 0.00 0.00 89 1010.9
20260510062327 32 360 0.0 0.0 0.00 0.00 0.00 89 1010.9
20260510061827 32 360 0.0 0.0 0.00 0.00 0.00 88 1010.9
20260510061327 32 360 0.0 0.0 0.00 0.00 0.00 88 1010.8
20260510060827 32 360 0.0 0.0 0.00 0.00 0.00 87 1010.8
20260510055823 33 360 0.0 0.0 0.00 0.00 0.00 86 1010.7
20260510055323 33 360 0.0 0.0 0.00 0.00 0.00 85 1010.5
20260510054823 33 360 0.0 0.0 0.00 0.00 0.00 85 1010.5
20260510054323 34 360 0.0 0.0 0.00 0.00 0.00 85 1010.5
20260510053823 34 360 0.0 0.0 0.00 0.00 0.00 84 1010.5
20260510053323 34 360 0.0 0.0 0.00 0.00 0.00 84 1010.5
20260510052823 34 360 0.0 0.0 0.00 0.00 0.00 84 1010.5
20260510052323 35 360 0.0 0.0 0.00 0.00 0.00 83 1010.4
20260510051823 35 360 0.0 0.0 0.00 0.00 0.00 82 1010.5
20260510051323 35 360 0.0 0.0 0.00 0.00 0.00 82 1010.4
20260510050823 36 360 0.0 0.0 0.00 0.00 0.00 82 1010.4
20260510050323 36 360 0.0 0.0 0.00 0.00 0.00 81 1010.4
20260510045823 36 360 0.0 0.0 0.00 0.00 0.00 80 1010.4
20260510045323 37 360 0.0 0.0 0.00 0.00 0.00 80 1010.3
20260510044823 37 360 0.0 0.0 0.00 0.00 0.00 80 1010.3
20260510044323 37 360 0.0 0.0 0.00 0.00 0.00 79 1010.2
20260510043823 38 360 0.0 0.0 0.00 0.00 0.00 79 1010.2
20260510043323 38 360 0.0 0.0 0.00 0.00 0.00 78 1010.2
20260510042823 38 360 0.0 0.0 0.00 0.00 0.00 77 1010.1
20260510041823 39 360 0.0 0.0 0.00 0.00 0.00 76 1010.2
20260510041323 39 360 0.0 0.0 0.00 0.00 0.00 75 1010.2
20260510040823 40 360 0.0 0.0 0.00 0.00 0.00 74 1010.2
20260510040323 40 360 0.0 0.0 0.00 0.00 0.00 74 1010.2
20260510035823 40 360 0.0 0.0 0.00 0.00 0.00 73 1010.2
20260510035323 41 360 0.0 0.0 0.00 0.00 0.00 72 1010.0
20260510034823 41 360 0.0 0.0 0.00 0.00 0.00 72 1010.0
20260510034323 41 360 0.0 0.0 0.00 0.00 0.00 72 1009.9
20260510033824 41 360 0.0 0.0 0.00 0.00 0.00 72 1009.8
20260510032823 41 360 0.0 0.0 0.00 0.00 0.00 72 1009.7
20260510032323 41 360 5.0 0.0 0.00 0.00 0.00 73 1009.6
20260510031823 41 360 0.0 0.0 0.00 0.00 0.00 73 1009.6
20260510030823 41 360 0.0 0.0 0.00 0.00 0.00 74 1009.4
20260510025823 41 360 0.0 0.0 0.00 0.00 0.00 74 1009.3
20260510025323 41 360 0.0 0.0 0.00 0.00 0.00 74 1009.3
20260510024823 41 360 0.0 0.0 0.00 0.00 0.00 74 1009.3
20260510023823 40 360 0.0 0.0 0.00 0.00 0.00 74 1009.2
20260510023323 40 360 0.0 0.0 0.00 0.00 0.00 74 1009.1
20260510022323 40 360 0.0 0.0 0.00 0.00 0.00 74 1009.0
20260510021823 40 360 5.0 0.0 0.00 0.00 0.00 74 1008.9
20260510021323 40 360 0.0 0.0 0.00 0.00 0.00 74 1008.9
20260510020823 40 360 0.0 6.0 0.00 0.00 0.00 73 1008.8
20260510015826 41 360 0.0 6.0 0.00 0.00 0.00 73 1009.0
20260510015326 41 360 0.0 6.0 0.00 0.00 0.00 72 1009.0
20260510014326 41 360 0.0 6.0 0.00 0.00 0.00 72 1008.8
20260510013826 41 360 0.0 6.0 0.00 0.00 0.00 72 1008.8
20260510013326 42 360 0.0 6.0 0.00 0.00 0.00 72 1008.7
20260510012826 42 360 0.0 6.0 0.00 0.00 0.00 71 1008.6
20260510012326 42 360 0.0 6.0 0.00 0.00 0.00 71 1008.5
20260510011826 42 360 0.0 6.0 0.00 0.00 0.00 70 1008.4
20260510011326 43 360 0.0 6.0 0.00 0.00 0.00 70 1008.3
20260510010826 43 360 0.0 6.0 0.00 0.00 0.00 70 1008.2
20260510005826 44 360 2.0 6.0 0.00 0.00 0.00 68 1008.0
20260510005326 44 360 3.0 6.0 0.00 0.00 0.00 68 1007.8
20260510004826 44 360 0.0 6.0 0.00 0.00 0.00 67 1007.7
20260510004326 44 360 1.0 6.0 0.00 0.00 0.00 67 1007.7
20260510003326 45 360 2.0 6.0 0.00 0.00 0.00 66 1007.6
20260510002826 46 360 3.0 6.0 0.00 0.00 0.00 65 1007.5
20260510002326 46 360 2.0 6.0 0.00 0.00 0.00 65 1007.5
20260510001826 46 360 6.0 6.0 0.00 0.00 0.00 65 1007.4
20260510000826 47 360 8.0 6.0 0.00 0.00 0.00 62 1007.1
20260510000326 47 360 4.0 6.0 0.00 0.00 0.00 62 1007.0
20260509235826 48 360 5.0 6.0 0.00 0.00 0.00 63 1006.8
20260509235326 47 360 0.0 6.0 0.00 0.00 0.00 64 1006.7
20260509234826 47 360 6.0 6.0 0.00 0.00 0.00 63 1006.5
20260509234326 47 360 1.0 6.0 0.00 0.00 0.00 63 1006.5
20260509233826 47 360 1.0 6.0 0.00 0.00 0.00 63 1006.3
20260509233326 48 360 0.0 6.0 0.00 0.00 0.00 63 1006.2
20260509232826 48 360 0.0 6.0 0.00 0.00 0.00 63 1006.1
20260509232326 48 360 2.0 6.0 0.00 0.00 0.00 62 1005.9
20260509231826 49 360 2.0 6.0 0.00 0.00 0.00 61 1005.9
20260509231326 49 360 2.0 6.0 0.00 0.00 0.00 60 1005.8
20260509230826 50 360 5.0 6.0 0.00 0.00 0.00 58 1005.8
20260509230326 50 360 8.0 6.0 0.00 0.00 0.00 58 1005.6
20260509225826 50 360 0.0 6.0 0.00 0.00 0.00 58 1005.5
20260509225326 50 360 3.0 6.0 0.00 0.00 0.00 57 1005.3
20260509224826 50 360 1.0 6.0 0.00 0.00 0.00 56 1005.2
20260509224326 50 5 3.0 6.0 0.00 0.00 0.00 53 1005.0
20260509223826 51 360 8.0 6.0 0.00 0.00 0.00 51 1004.9
20260509222326 52 360 3.0 6.0 0.00 0.00 0.00 50 1004.6
20260509221826 52 360 2.0 6.0 0.00 0.00 0.00 47 1004.4
20260509220826 53 360 3.0 11.0 0.00 0.00 0.00 45 1004.4
20260509215332 54 360 0.0 3.0 0.00 0.00 0.00 43 1004.0
20260509214832 55 360 2.0 3.0 0.00 0.00 0.00 42 1003.9
20260509214332 56 360 0.0 3.0 0.00 0.00 0.00 45 1004.0
20260509213832 56 360 5.0 3.0 0.00 0.00 0.00 44 1003.8
20260509213332 56 360 2.0 3.0 0.00 0.00 0.00 45 1003.7
20260509212832 56 360 0.0 3.0 0.00 0.00 0.00 45 1003.5
20260509211832 55 360 2.0 3.0 0.00 0.00 0.00 46 1003.1
20260509211332 54 355 1.0 3.0 0.00 0.00 0.00 49 1003.1
20260509210332 53 360 0.0 3.0 0.00 0.00 0.00 50 1002.9
20260509205832 52 360 3.0 3.0 0.00 0.00 0.00 53 1002.9
20260509205332 52 360 0.0 3.0 0.00 0.00 0.00 51 1003.1
20260509204832 52 360 2.0 3.0 0.00 0.00 0.00 53 1003.2
20260509204332 52 360 5.0 3.0 0.00 0.00 0.00 52 1003.1
20260509203832 52 360 6.0 3.0 0.00 0.00 0.00 52 1003.0
20260509203332 52 360 3.0 3.0 0.00 0.00 0.00 53 1002.8
20260509202832 52 360 1.0 3.0 0.00 0.00 0.00 52 1002.8
20260509201832 51 360 0.0 3.0 0.00 0.00 0.00 54 1002.6
20260509201332 51 360 1.0 3.0 0.00 0.00 0.00 55 1002.4
20260509200832 51 360 0.0 3.0 0.00 0.00 0.00 55 1002.3
20260509200332 52 360 0.0 3.0 0.00 0.00 0.00 54 1002.2
20260509195832 52 360 1.0 3.0 0.00 0.00 0.00 54 1002.1
20260509195332 52 360 6.0 3.0 0.00 0.00 0.00 54 1001.8
20260509194832 53 360 0.0 3.0 0.00 0.00 0.00 53 1001.9
20260509194332 53 360 3.0 3.0 0.00 0.00 0.00 54 1001.8
20260509193332 54 360 3.0 3.0 0.00 0.00 0.00 52 1001.7
20260509192832 55 360 2.0 3.0 0.00 0.00 0.00 50 1001.7
20260509192332 56 360 2.0 3.0 0.00 0.00 0.00 49 1001.6
20260509190832 59 360 2.0 3.0 0.00 0.00 0.00 44 1001.3
20260509190332 59 360 4.0 3.0 0.00 0.00 0.00 45 1001.2
20260509185332 58 360 4.0 3.0 0.00 0.00 0.00 44 1001.0
20260509184832 57 360 8.0 3.0 0.00 0.00 0.00 44 1000.9
20260509184332 57 360 3.0 3.0 0.00 0.00 0.00 45 1000.8
20260509183832 57 360 11.0 3.0 0.00 0.00 0.00 45 1000.8
20260509183332 57 360 4.0 3.0 0.00 0.00 0.00 50 1000.7
20260509182832 56 360 8.0 3.0 0.00 0.00 0.00 47 1000.6
20260509182332 55 360 1.0 3.0 0.00 0.00 0.00 50 1000.6
20260509181832 55 360 3.0 3.0 0.00 0.00 0.00 49 1000.5
20260509181332 54 360 3.0 3.0 0.00 0.00 0.00 49 1000.4
20260509180832 54 360 5.0 9.0 0.00 0.00 0.00 49 1000.4
20260509175332 54 360 2.0 9.0 0.00 0.00 0.00 49 1000.2
20260509174832 54 360 1.0 9.0 0.00 0.00 0.00 47 1000.3
20260509174332 55 360 10.0 9.0 0.00 0.00 0.00 49 1000.1
20260509173832 55 360 6.0 14.0 0.00 0.00 0.00 47 1000.1
20260509172834 56 360 1.0 14.0 0.00 0.00 0.00 48 999.9
20260509172335 56 360 3.0 14.0 0.00 0.00 0.00 47 999.8
20260509171834 55 360 2.0 14.0 0.00 0.00 0.00 49 999.8
20260509171335 55 360 6.0 14.0 0.00 0.00 0.00 49 999.7
20260509170834 55 360 4.0 14.0 0.00 0.00 0.00 51 999.7
20260509170334 55 360 3.0 14.0 0.00 0.00 0.00 49 999.7
20260509165334 55 360 5.0 14.0 0.00 0.00 0.00 53 999.6
20260509164834 54 360 6.0 14.0 0.00 0.00 0.00 56 999.5
20260509164335 54 360 6.0 14.0 0.00 0.00 0.00 56 999.3
20260509163834 53 360 3.0 14.0 0.00 0.00 0.00 58 999.5
20260509163335 54 360 0.0 14.0 0.00 0.00 0.00 58 999.5
20260509162834 54 360 2.0 14.0 0.00 0.00 0.00 58 999.5
20260509162334 54 360 2.0 14.0 0.00 0.00 0.00 58 999.3
20260509161834 54 360 10.0 14.0 0.00 0.00 0.00 58 999.5
20260509161334 54 360 4.0 14.0 0.00 0.00 0.00 61 999.5
20260509160834 53 360 5.0 14.0 0.00 0.00 0.00 63 999.5
20260509160334 52 360 5.0 14.0 0.00 0.00 0.00 63 999.3
20260509155834 52 360 6.0 14.0 0.00 0.00 0.00 64 999.1
20260509155334 51 360 3.0 14.0 0.00 0.00 0.00 67 999.0
20260509154834 51 360 4.0 14.0 0.00 0.00 0.00 68 998.9
20260509154334 51 360 2.0 14.0 0.00 0.00 0.00 67 998.9
20260509153835 51 360 8.0 14.0 0.00 0.00 0.00 69 998.9
20260509153334 51 360 4.0 14.0 0.00 0.00 0.00 69 998.6
20260509152834 51 360 3.0 14.0 0.00 0.00 0.00 68 998.6
20260509152334 50 360 10.0 14.0 0.00 0.00 0.00 70 998.5
20260509151834 50 360 4.0 14.0 0.00 0.00 0.00 70 998.5
20260509151335 50 360 8.0 14.0 0.00 0.00 0.00 69 998.5
20260509150834 50 360 4.0 14.0 0.00 0.00 0.00 69 998.4
20260509150334 50 360 4.0 14.0 0.00 0.00 0.00 69 998.5
20260509145334 51 360 2.0 14.0 0.00 0.00 0.00 68 997.8
20260509144834 51 360 2.0 14.0 0.00 0.00 0.00 69 997.8
20260509143834 52 360 4.0 14.0 0.00 0.00 0.00 68 997.6
20260509143334 52 360 2.0 14.0 0.00 0.00 0.00 68 997.4
20260509142834 52 360 4.0 14.0 0.00 0.00 0.00 70 997.3
20260509142334 53 360 1.0 14.0 0.00 0.00 0.00 70 997.3
20260509141835 53 360 3.0 14.0 0.00 0.00 0.00 69 997.4
20260509141334 54 360 2.0 14.0 0.00 0.00 0.00 69 997.5
20260509140834 55 360 6.0 14.0 0.00 0.00 0.00 68 997.3
20260509135830 55 360 4.0 4.0 0.00 0.00 0.00 70 997.1
20260509135330 55 360 5.0 4.0 0.00 0.00 0.00 71 997.2
20260509134830 55 360 9.0 4.0 0.00 0.00 0.00 72 997.0
20260509134330 55 360 1.0 4.0 0.00 0.00 0.00 73 997.2
20260509133830 55 360 5.0 4.0 0.00 0.00 0.00 72 997.0
20260509133330 55 360 3.0 4.0 0.00 0.00 0.00 72 996.9
20260509132830 55 360 15.0 4.0 0.00 0.00 0.00 72 996.8
20260509132330 55 360 8.0 4.0 0.00 0.00 0.00 71 996.8
20260509131330 56 360 17.0 4.0 0.00 0.00 0.00 70 996.8
20260509130830 56 360 6.0 4.0 0.00 0.00 0.00 71 996.7